RADFXSAT (FOX-1B) (43017 NORAD) Tracking and Keplerian Element Data

This shows tracking and keplerian element data for the satellite.

Feedback or suggestion? Click here.




ElementValue
Catalog43017
NameRADFXSAT (FOX-1B)
Epoch Orbit21848
Epoch Day339.95537502
Epoch Year2021
RAAN237.0236
Inclination97.6925
Eccentricity0.0254868
Argument of Perigee100.495
Mean Anonmoly262.5085
Mean Motion14.79990609
Decay Rate1.095E-05
L11 43017U 17073E 21339.95537502 .00001095 00000+0 87833-4 0 9994
L22 43017 97.6925 237.0236 0254868 100.4950 262.5085 14.79990609218485

Live tracking and technical data element details for RADFXSAT (FOX-1B) (NORAD 43017). RADFXSAT (FOX-1B) can be tracked NOW for your location showing map with azimuth and elevation plus other details from your city location.

Track the satellite on the map from your city or location and see movement details for azimuth, elevation, latitude, longitude, range, height, and movement on the map or in text.







IsCatalogInMostPopularTable: catalog: 43017, numindb: 1006
Update: records affected: 1



GetName: 43017 RADFXSAT (FOX-1B)

Hit Count: updated at: Wed, 08 Dec 2021 16:01:38 GMT